Home   Weather   Ede   Past weeks

Flag for Netherlands Past Weather in Ede, Netherlands — Yesterday and Last 2 Weeks

Now
43 °F

Drizzle. Overcast.


Feels Like: 41 °F
Forecast: 36 / 49 °F
Wind: 3 mph from Northwest

Location: Deelen

Current Time: Apr 25, 2017 at 1:22:49 am

Latest Report: Apr 25, 2017 at 12:55 am


Visibility: N/A

Pressure: 29.71 "Hg

Humidity: 93%

Dew Point: 41 °F

Location of EdeLocation

Past Weather in Ede — Graph

°F

Ede Temperature Yesterday

Maximum temperature yesterday: 55 °F (at 11:55 am)
Minimum temperature yesterday: 32 °F (at 12:25 am)
Average temperature yesterday: 47 °F

High & Low Weather Summary for the Past Weeks

 TemperatureHumidityPressure
High59 °F (Apr 21, 1:55 pm)100% (Apr 11, 1:55 am)30.63 "Hg (Apr 11, 1:55 am)
Low23 °F (Apr 20, 6:55 am)35% (Apr 20, 2:25 pm)29.74 "Hg (Apr 24, 10:25 pm)
Average45 °F75%30.18 "Hg
* Reported Apr 10 12:25 am — Apr 25 12:25 am, Ede, Weather by CustomWeather, © 2017

Note: Actual official high and low records may vary slightly from our data, if they occured in-between our weather recording intervals... More about our weather records

Advertising

Ede Weather History for the Previous 24 Hours

Scroll right to see more
 ConditionsComfort  
Time TempWeatherWind HumidityBarometerVisibility
12:25 am
Tue, Apr 25
43 °FLight rain. Mostly cloudy.9 mph93%29.74 "Hg6 mi
11:55 pm
Mon, Apr 24
45 °FSprinkles. Partly cloudy.13 mph100%29.74 "Hg4 mi
11:25 pm46 °FRain showers. Partly cloudy.8 mph93%29.74 "Hg4 mi
10:55 pm48 °FDrizzle. Mostly cloudy.7 mph82%29.74 "HgN/A
10:25 pm50 °FDrizzle. Mostly cloudy.8 mph76%29.74 "HgN/A
9:55 pm50 °FPassing clouds.7 mph71%29.77 "HgN/A
9:25 pm52 °FMostly cloudy.10 mph67%29.77 "HgN/A
8:55 pm52 °FMostly cloudy.10 mph67%29.77 "HgN/A
8:25 pm52 °FMostly cloudy.10 mph67%29.77 "HgN/A
7:55 pm52 °FLight rain. Partly sunny.9 mph67%29.80 "HgN/A
7:25 pm54 °FBroken clouds.9 mph63%29.80 "HgN/A
6:55 pm54 °FBroken clouds.6 mph67%29.80 "HgN/A
6:25 pm54 °FMostly cloudy.6 mph67%29.83 "HgN/A
5:55 pm54 °FPartly sunny.8 mph67%29.83 "HgN/A
5:25 pm54 °FMostly cloudy.10 mph67%29.83 "HgN/A
4:55 pm54 °FMore clouds than sun.7 mph72%29.86 "HgN/A
4:25 pm52 °FPartly sunny.9 mph77%29.86 "HgN/A
3:55 pm54 °FBroken clouds.12 mph67%29.89 "HgN/A
3:25 pm54 °FBroken clouds.9 mph72%29.89 "HgN/A
2:55 pm52 °FDrizzle. Broken clouds.9 mph82%29.89 "HgN/A
2:25 pm52 °FDrizzle. Broken clouds.10 mph77%29.92 "HgN/A
1:55 pm52 °FLight rain. Mostly cloudy.12 mph77%29.92 "HgN/A
1:25 pm54 °FMostly cloudy.16 mph67%29.92 "HgN/A
12:55 pm54 °FCloudy.18 mph63%29.92 "HgN/A
12:25 pm55 °FBroken clouds.13 mph63%29.95 "HgN/A
11:55 am55 °FOvercast.17 mph63%29.95 "HgN/A
11:25 am54 °FPassing clouds.18 mph67%29.95 "HgN/A
10:55 am52 °FCool.17 mph62%29.98 "HgN/A
10:25 am52 °FPartly sunny.16 mph62%29.98 "HgN/A
9:55 am48 °FOvercast.15 mph66%29.98 "HgN/A
9:25 am48 °FScattered clouds.13 mph62%30.01 "HgN/A
8:55 am46 °FPartly sunny.14 mph66%30.01 "HgN/A
8:25 am43 °FPartly sunny.13 mph71%30.01 "HgN/A
7:55 am43 °FScattered clouds.12 mph71%30.01 "HgN/A
7:25 am41 °FPartly sunny.13 mph76%30.04 "HgN/A
6:55 am41 °FMore clouds than sun.12 mph76%30.04 "HgN/A
6:25 am41 °FPartly sunny.12 mph76%30.04 "HgN/A
5:55 am41 °FPassing clouds.12 mph76%30.07 "HgN/A
5:25 am41 °FOvercast.10 mph76%30.07 "HgN/A
4:55 am39 °FOvercast.9 mph81%30.09 "HgN/A
4:25 am37 °FPassing clouds.8 mph87%30.09 "HgN/A
3:55 am36 °FPassing clouds.2 mph93%30.09 "HgN/A
3:25 am36 °FPassing clouds.5 mph93%30.12 "HgN/A
2:55 am36 °FChilly.1 mph87%30.12 "HgN/A
2:25 am36 °FPassing clouds.2 mph87%30.15 "HgN/A
1:55 am34 °FPassing clouds.2 mph93%30.15 "HgN/A
1:25 am34 °FPassing clouds.1 mph87%30.18 "HgN/A
Weather by CustomWeather, © 2017

See weather overviewHow to use our weather pages